Location: Ferintosh
(52.7647°N, 112.9692°W)
Time: 23:13:26
(UTC+00:00)

Vanguard 1 Rocket - Pass Details

Date: 19 May 2024
Orbit: 649 x 4221 km, 34.3° (Epoch: 13 June)

Event Time Altitude Azimuth Distance (km) Brightness Sun altitude
Rises 22:24:06 0° 260° (W) 5,128 12.0 43.0°
Reaches altitude 10° 22:31:29 10° 226° (SW) 3,185 11.2 42.0°
Maximum altitude 22:32:50 11° 216° (SW) 2,978 10.9 41.8°
Drops below altitude 10° 22:34:06 10° 205° (SSW) 2,869 10.7 41.7°
Sets 22:38:58 0° 165° (SSE) 3,301 10.4 41.0°
